CZ-6A DEB, 61475

Orbit data source: Space-Track

CZ-6A DEB, 61475 is space debris in LEO originally from a launch on Tue, 06 Aug 2024 UTC launched from the Taiyaun Space Center, China (TSC). Debris objects in space refer to the collection of defunct objects orbiting the Earth. Examples of debris include non-operational satellites, rocket bodies, and fragments generated from explosions, collisions, or faulty payload assembly.

Loading next visibility...
Identifier
61475, 2024-140AAH
Orbit
LEO
Last TLE update
21 hours ago
Origin
Manufacturer
SAST
Mission
Spacecraft
Bus & Motor
Unknown
Mass
Unknown
Launch date (UTC)
2024-08-06 (11 months ago)
Launch vehicle
Unknown
Launch site
Taiyaun Space Center, China (TSC)
Object type
Payload
Rocket body
Debris
Shape & HBR
Unknown
Radar Cross Section
Small (<0.1 m²)

Expand to show TLE details & history

TLE from 21 hours ago
0 CZ-6A DEB
1 61475U 24140AAH 25189.72909700  .00000039  00000-0  31163-4 0  9993
2 61475  88.3816 296.6002 0433656 343.9355  14.8387 13.38564625 41136
Epoch: 2025-07-08T17:29Z
TLE epoch observation values (Epoch: 2025-07-08T17:29:53.98Z)
Latitude
-0.00005°
Longitude
107.20538°
Altitude
804.405 km
Speed
7.605 km/s
True Right ascension
19h 46m 24s
True Declination
0° 00' 00"
Sunlit
Object was in full shadow at epoch
Visualization orbit readout
Latitude
-21.0729°
Longitude
-72.31273°
Altitude
1,367.949 km
Speed
7.055 km/s
Apparent Right ascension
10h 16m 02s
Apparent Declination
-40° 23' 01"
Sunlit
Object is in daylight
Visualization observer readout
Local Sidereal Time
02:25:57
Azimuth
111.865° ESE
Elevation
-43.29°
Doppler factor
1
Orbital elements
Apogee altitude
1,436.497 km
Perigee altitude
786.895 km
Semi-major axis
7,489.833 km
Eccentricity
0.04337
Inclination
88.3816°
RAAN
296.6002°
Arg. of periapsis
343.9355°
True anomaly
Unknown
Mean anomaly
14.8387°
Eccentric anomaly
Unknown
Mean motion
3.34838 °/min
Orbital period
107.51 mins
BSTAR
0.000031163
Loading maneuver chart data...
Loading SW <> Apogee altitude chart data...
Loading historical data...
Loading historical data...
Loading historical data...
Loading historical data...
Loading historical data...
Loading historical data...
Loading historical data...

CZ-6A DEB Visibility forecast

Observer location: undefined°, undefined°

Span
Click to sort rows by Start time (UTC) header in descending order
Start Az.
Max El. time (UTC)
Max El. Az.
Max El.
End time (UTC)
End Az.
8 mins2025-07-09 17:26:20.762Z44.62° NE2025-07-09 17:30:20.762Z75.691° E15.008°2025-07-09 17:34:20.762Z104.743° ESE
14 mins2025-07-09 19:12:20.762Z4.247° NNE2025-07-09 19:18:20.762Z69.343° E44.423°2025-07-09 19:26:20.762Z176.417° S
10 mins2025-07-09 21:01:20.762Z321.331° NNW2025-07-09 21:05:20.762Z286.398° WNW20.807°2025-07-09 21:11:20.762Z240.785° WSW
10 mins2025-07-10 07:17:20.762Z164.15° S2025-07-10 07:21:20.762Z92.264° ESE42.667°2025-07-10 07:27:20.762Z5.603° NNE
5 mins2025-07-10 09:08:20.762Z269.62° W2025-07-10 09:10:20.762Z292.532° NW15.07°2025-07-10 09:13:20.762Z321.72° NNW
|